QPF
0.02 0.02 0.02 0.03 0.02 0.01 0.00 0.01 0.02 0.01 0.00 0.01 0.03 0.02 0.02 0.01 0.02 0.02 0.02 0.01 0.04 0.03 0.03 0.01 0.00 0.00 0.01 0.02 0.02 0.02 0.04 0.04 0.04 0.05 0.05 0.06 0.08 0.06 0.04 0.04 0.03 0.04 0.05 0.05
0.01 0.00 0.00 0.00 0.00 0.00 0.00 0.00 0.02 0.02 0.01 0.01 0.03 0.02 0.01 0.01 0.01 0.02 0.02 0.02 0.02 0.05 0.06 0.02 0.00 0.01 0.02 0.03 0.02 0.03 0.03 0.03 0.04 0.05 0.05 0.06 0.07 0.06 0.05 0.06 0.07 0.05 0.06 0.05
0.00 0.00 0.00 0.00 0.00 0.01 0.00 0.00 0.03 0.04 0.02 0.00 0.01 0.03 0.01 0.01 0.02 0.01 0.02 0.02 0.02 0.03 0.04 0.02 0.01 0.03 0.04 0.04 0.04 0.03 0.04 0.04 0.04 0.05 0.05 0.06 0.07 0.08 0.08 0.09 0.09 0.06 0.05 0.04
0.00 0.00 0.00 0.00 0.00 0.00 0.00 0.00 0.01 0.02 0.01 0.01 0.02 0.03 0.01 0.02 0.03 0.02 0.03 0.03 0.01 0.03 0.04 0.01 0.01 0.01 0.02 0.02 0.02 0.03 0.04 0.03 0.04 0.04 0.05 0.05 0.06 0.07 0.08 0.08 0.06 0.05 0.04 0.03
0.00 0.00 0.00 0.00 0.00 0.01 0.01 0.00 0.00 0.01 0.02 0.02 0.01 0.02 0.02 0.02 0.05 0.03 0.03 0.02 0.01 0.04 0.03 0.01 0.00 0.00 0.01 0.03 0.02 0.02 0.03 0.03 0.03 0.03 0.04 0.04 0.04 0.05 0.06 0.07 0.07 0.06 0.05 0.04
0.00 0.00 0.00 0.00 0.00 0.01 0.01 0.01 0.01 0.01 0.04 0.06 0.02 0.01 0.01 0.03 0.07 0.06 0.03 0.02 0.01 0.02 0.02 0.01 0.00 0.00 0.00 0.03 0.04 0.02 0.03 0.03 0.03 0.02 0.02 0.03 0.03 0.03 0.04 0.05 0.07 0.06 0.05 0.04
0.01 0.01 0.00 0.00 0.00 0.00 0.00 0.01 0.04 0.03 0.05 0.06 0.03 0.01 0.01 0.02 0.04 0.07 0.05 0.03 0.01 0.01 0.01 0.00 0.00 0.00 0.00 0.01 0.01 0.02 0.02 0.02 0.02 0.02 0.01 0.02 0.02 0.03 0.04 0.04 0.05 0.05 0.05 0.06
0.01 0.02 0.00 0.00 0.00 0.00 0.00 0.01 0.04 0.03 0.03 0.03 0.02 0.01 0.01 0.02 0.01 0.02 0.03 0.03 0.02 0.01 0.01 0.00 0.00 0.00 0.00 0.01 0.01 0.01 0.01 0.01 0.01 0.01 0.01 0.01 0.02 0.03 0.04 0.05 0.05 0.05 0.05 0.06
0.01 0.01 0.00 0.00 0.00 0.00 0.00 0.02 0.03 0.02 0.02 0.04 0.03 0.02 0.02 0.04 0.04 0.02 0.03 0.08 0.11 0.03 0.02 0.00 0.00 0.00 0.00 0.01 0.02 0.02 0.01 0.01 0.00 0.01 0.02 0.02 0.02 0.04 0.05 0.05 0.04 0.03 0.04 0.05
0.00 0.00 0.00 0.00 0.00 0.00 0.00 0.00 0.00 0.00 0.02 0.06 0.06 0.04 0.03 0.02 0.03 0.03 0.02 0.04 0.07 0.03 0.02 0.01 0.01 0.00 0.01 0.01 0.02 0.02 0.02 0.01 0.01 0.01 0.01 0.02 0.03 0.03 0.02 0.02 0.03 0.03 0.04 0.04
0.00 0.01 0.01 0.00 0.00 0.00 0.00 0.00 0.00 0.00 0.01 0.03 0.05 0.04 0.03 0.04 0.03 0.02 0.02 0.02 0.03 0.03 0.02 0.01 0.00 0.00 0.01 0.02 0.03 0.03 0.03 0.03 0.03 0.03 0.04 0.03 0.02 0.02 0.02 0.03 0.03 0.04 0.04 0.04
0.01 0.02 0.04 0.01 0.00 0.00 0.00 0.00 0.00 0.00 0.01 0.02 0.03 0.02 0.03 0.05 0.03 0.03 0.04 0.05 0.05 0.04 0.02 0.01 0.00 0.00 0.01 0.01 0.02 0.02 0.02 0.02 0.02 0.04 0.05 0.03 0.03 0.03 0.03 0.04 0.03 0.03 0.03 0.02
0.01 0.02 0.07 0.04 0.01 0.00 0.00 0.00 0.00 0.00 0.01 0.03 0.02 0.02 0.02 0.05 0.05 0.03 0.04 0.04 0.03 0.03 0.03 0.01 0.00 0.00 0.00 0.01 0.01 0.02 0.02 0.02 0.02 0.03 0.04 0.03 0.03 0.03 0.02 0.03 0.03 0.02 0.01 0.02
0.00 0.00 0.04 0.07 0.02 0.01 0.00 0.00 0.00 0.00 0.02 0.01 0.01 0.02 0.03 0.04 0.03 0.02 0.02 0.02 0.03 0.02 0.01 0.01 0.01 0.01 0.00 0.00 0.01 0.01 0.01 0.02 0.02 0.02 0.02 0.03 0.03 0.04 0.03 0.03 0.03 0.02 0.01 0.02
0.00 0.00 0.01 0.01 0.00 0.00 0.00 0.00 0.00 0.00 0.00 0.01 0.02 0.02 0.03 0.04 0.02 0.01 0.01 0.01 0.03 0.03 0.01 0.01 0.01 0.01 0.01 0.01 0.01 0.01 0.01 0.01 0.03 0.04 0.02 0.02 0.03 0.03 0.03 0.03 0.03 0.02 0.02 0.02
0.01 0.00 0.01 0.00 0.00 0.00 0.00 0.00 0.00 0.00 0.00 0.01 0.01 0.02 0.03 0.04 0.02 0.01 0.00 0.01 0.01 0.01 0.00 0.00 0.00 0.00 0.01 0.01 0.01 0.00 0.01 0.01 0.02 0.03 0.02 0.02 0.02 0.02 0.02 0.03 0.03 0.03 0.02 0.02
0.00 0.00 0.01 0.01 0.00 0.00 0.01 0.01 0.00 0.00 0.00 0.00 0.01 0.03 0.03 0.01 0.01 0.01 0.00 0.01 0.01 0.01 0.00 0.00 0.00 0.00 0.00 0.01 0.01 0.01 0.01 0.01 0.01 0.02 0.02 0.01 0.02 0.02 0.02 0.01 0.02 0.02 0.02 0.02
0.00 0.01 0.01 0.00 0.01 0.01 0.01 0.01 0.00 0.00 0.00 0.01 0.01 0.02 0.02 0.01 0.01 0.01 0.00 0.01 0.02 0.01 0.00 0.00 0.00 0.00 0.00 0.00 0.01 0.01 0.02 0.02 0.02 0.03 0.02 0.02 0.02 0.02 0.01 0.01 0.01 0.02 0.02 0.02
0.00 0.01 0.02 0.02 0.02 0.02 0.01 0.00 0.00 0.00 0.01 0.01 0.02 0.01 0.01 0.01 0.01 0.01 0.01 0.01 0.01 0.00 0.00 0.00 0.01 0.01 0.01 0.01 0.01 0.02 0.02 0.04 0.04 0.03 0.02 0.01 0.01 0.01 0.01 0.01 0.01 0.02 0.02 0.02
0.02 0.01 0.03 0.03 0.03 0.04 0.02 0.01 0.00 0.00 0.01 0.02 0.01 0.01 0.01 0.02 0.03 0.03 0.02 0.02 0.02 0.02 0.01 0.01 0.01 0.01 0.01 0.01 0.01 0.02 0.02 0.03 0.03 0.03 0.01 0.01 0.01 0.01 0.01 0.01 0.01 0.01 0.01 0.01
0.01 0.02 0.03 0.04 0.03 0.02 0.01 0.01 0.00 0.01 0.02 0.01 0.01 0.02 0.02 0.02 0.04 0.04 0.03 0.03 0.02 0.01 0.01 0.00 0.01 0.01 0.01 0.01 0.02 0.03 0.04 0.03 0.02 0.02 0.02 0.01 0.01 0.01 0.01 0.01 0.01 0.01 0.01 0.02
0.02 0.03 0.02 0.03 0.04 0.04 0.01 0.01 0.01 0.02 0.01 0.01 0.01 0.02 0.02 0.02 0.03 0.03 0.02 0.01 0.01 0.01 0.00 0.00 0.00 0.01 0.01 0.01 0.02 0.04 0.05 0.04 0.03 0.02 0.02 0.02 0.02 0.01 0.01 0.02 0.03 0.03 0.03 0.02
0.04 0.06 0.06 0.05 0.05 0.04 0.03 0.04 0.04 0.03 0.02 0.03 0.02 0.02 0.02 0.01 0.02 0.02 0.01 0.01 0.01 0.01 0.00 0.00 0.01 0.01 0.01 0.02 0.03 0.04 0.04 0.04 0.03 0.03 0.03 0.03 0.03 0.02 0.02 0.02 0.03 0.03 0.03 0.03
0.03 0.04 0.05 0.05 0.06 0.04 0.03 0.05 0.05 0.05 0.04 0.04 0.02 0.02 0.04 0.04 0.02 0.01 0.01 0.01 0.01 0.01 0.01 0.01 0.01 0.02 0.03 0.04 0.04 0.04 0.04 0.05 0.05 0.05 0.05 0.04 0.04 0.04 0.04 0.04 0.03 0.03 0.03 0.03
0.03 0.03 0.03 0.04 0.04 0.04 0.03 0.02 0.03 0.04 0.04 0.03 0.02 0.01 0.03 0.05 0.03 0.02 0.02 0.02 0.02 0.02 0.02 0.03 0.03 0.04 0.04 0.06 0.07 0.06 0.05 0.06 0.07 0.06 0.05 0.05 0.04 0.04 0.04 0.04 0.03 0.03 0.03 0.04
0.03 0.03 0.04 0.06 0.05 0.05 0.05 0.03 0.02 0.03 0.04 0.05 0.06 0.04 0.02 0.01 0.01 0.01 0.02 0.04 0.05 0.03 0.03 0.04 0.05 0.06 0.06 0.06 0.05 0.06 0.06 0.05 0.06 0.06 0.06 0.05 0.04 0.03 0.03 0.02 0.02 0.02 0.02 0.02
MSLP
1009.16 1009.24 1009.17 1008.96 1008.68 1008.38 1008.13 1007.94 1007.84 1007.78 1007.72 1007.60 1007.39 1007.06 1006.60 1006.05 1005.45 1004.86 1004.33 1003.90 1003.59 1003.40 1003.31 1003.32 1003.41 1003.57 1003.79 1004.08 1004.44 1004.88 1005.37 1005.89 1006.39 1006.83 1007.19 1007.43 1007.56 1007.60 1007.57 1007.53 1007.50 1007.53 1007.62 1007.77
1009.20 1009.19 1009.06 1008.85 1008.62 1008.41 1008.27 1008.21 1008.21 1008.21 1008.17 1008.03 1007.76 1007.34 1006.80 1006.17 1005.51 1004.89 1004.34 1003.90 1003.58 1003.37 1003.25 1003.19 1003.20 1003.26 1003.40 1003.62 1003.94 1004.36 1004.87 1005.43 1005.98 1006.49 1006.90 1007.18 1007.34 1007.37 1007.34 1007.27 1007.24 1007.26 1007.35 1007.51
1009.08 1008.99 1008.83 1008.66 1008.53 1008.46 1008.48 1008.57 1008.68 1008.75 1008.72 1008.54 1008.17 1007.64 1006.97 1006.23 1005.49 1004.82 1004.24 1003.80 1003.48 1003.26 1003.11 1003.01 1002.95 1002.93 1002.99 1003.14 1003.41 1003.80 1004.32 1004.90 1005.51 1006.07 1006.54 1006.86 1007.04 1007.10 1007.07 1007.00 1006.97 1006.99 1007.09 1007.26
1008.85 1008.69 1008.54 1008.45 1008.44 1008.54 1008.74 1008.98 1009.20 1009.33 1009.29 1009.03 1008.56 1007.88 1007.08 1006.22 1005.38 1004.65 1004.06 1003.62 1003.31 1003.10 1002.95 1002.83 1002.73 1002.65 1002.64 1002.73 1002.95 1003.31 1003.82 1004.42 1005.06 1005.66 1006.16 1006.53 1006.74 1006.81 1006.79 1006.74 1006.71 1006.74 1006.85 1007.04
1008.64 1008.44 1008.30 1008.28 1008.40 1008.66 1009.01 1009.39 1009.70 1009.85 1009.78 1009.45 1008.85 1008.04 1007.10 1006.13 1005.22 1004.45 1003.85 1003.43 1003.16 1002.98 1002.85 1002.74 1002.62 1002.51 1002.45 1002.48 1002.65 1002.98 1003.47 1004.06 1004.70 1005.31 1005.83 1006.21 1006.44 1006.53 1006.52 1006.47 1006.45 1006.49 1006.61 1006.80
1008.62 1008.37 1008.24 1008.27 1008.48 1008.84 1009.30 1009.76 1010.11 1010.26 1010.14 1009.72 1009.02 1008.09 1007.05 1006.01 1005.06 1004.28 1003.71 1003.33 1003.12 1003.00 1002.91 1002.82 1002.70 1002.57 1002.48 1002.47 1002.59 1002.88 1003.32 1003.87 1004.48 1005.07 1005.58 1005.94 1006.15 1006.23 1006.21 1006.15 1006.13 1006.17 1006.29 1006.49
1008.90 1008.60 1008.45 1008.49 1008.72 1009.12 1009.60 1010.07 1010.41 1010.52 1010.34 1009.84 1009.06 1008.08 1006.99 1005.92 1004.98 1004.25 1003.74 1003.44 1003.29 1003.24 1003.21 1003.14 1003.04 1002.90 1002.77 1002.72 1002.79 1003.01 1003.38 1003.87 1004.42 1004.94 1005.38 1005.69 1005.85 1005.88 1005.82 1005.74 1005.70 1005.72 1005.85 1006.06
1009.56 1009.20 1008.99 1008.98 1009.16 1009.50 1009.93 1010.33 1010.60 1010.64 1010.40 1009.85 1009.04 1008.04 1006.98 1005.96 1005.09 1004.44 1004.02 1003.80 1003.74 1003.75 1003.76 1003.72 1003.62 1003.47 1003.31 1003.21 1003.21 1003.36 1003.64 1004.03 1004.47 1004.89 1005.23 1005.44 1005.51 1005.46 1005.34 1005.21 1005.13 1005.14 1005.26 1005.48
1010.57 1010.14 1009.84 1009.73 1009.79 1010.00 1010.29 1010.57 1010.73 1010.68 1010.38 1009.81 1009.02 1008.08 1007.10 1006.19 1005.44 1004.90 1004.58 1004.45 1004.45 1004.51 1004.54 1004.51 1004.39 1004.21 1004.02 1003.86 1003.79 1003.85 1004.02 1004.29 1004.60 1004.88 1005.08 1005.16 1005.12 1004.96 1004.76 1004.56 1004.44 1004.43 1004.55 1004.79
1011.81 1011.31 1010.91 1010.66 1010.56 1010.59 1010.70 1010.82 1010.84 1010.70 1010.36 1009.82 1009.09 1008.27 1007.43 1006.66 1006.05 1005.63 1005.41 1005.34 1005.38 1005.43 1005.45 1005.39 1005.24 1005.02 1004.78 1004.56 1004.42 1004.38 1004.45 1004.59 1004.75 1004.88 1004.93 1004.87 1004.69 1004.42 1004.13 1003.87 1003.71 1003.68 1003.82 1004.10
1013.07 1012.53 1012.04 1011.65 1011.38 1011.22 1011.15 1011.10 1011.00 1010.79 1010.45 1009.96 1009.34 1008.66 1007.99 1007.38 1006.91 1006.59 1006.42 1006.37 1006.38 1006.40 1006.35 1006.23 1006.02 1005.74 1005.44 1005.17 1004.96 1004.84 1004.81 1004.83 1004.86 1004.85 1004.76 1004.56 1004.26 1003.90 1003.54 1003.24 1003.06 1003.04 1003.21 1003.54
1014.15 1013.59 1013.05 1012.56 1012.15 1011.84 1011.61 1011.43 1011.24 1011.01 1010.69 1010.29 1009.80 1009.28 1008.76 1008.29 1007.92 1007.65 1007.49 1007.39 1007.33 1007.24 1007.10 1006.87 1006.58 1006.24 1005.89 1005.57 1005.31 1005.14 1005.03 1004.96 1004.89 1004.76 1004.56 1004.27 1003.89 1003.48 1003.08 1002.78 1002.62 1002.64 1002.86 1003.26
1014.88 1014.37 1013.81 1013.28 1012.80 1012.40 1012.08 1011.83 1011.61 1011.38 1011.13 1010.82 1010.47 1010.08 1009.68 1009.30 1008.98 1008.70 1008.47 1008.27 1008.07 1007.84 1007.56 1007.22 1006.83 1006.43 1006.04 1005.69 1005.41 1005.21 1005.06 1004.94 1004.80 1004.62 1004.35 1004.01 1003.62 1003.20 1002.84 1002.58 1002.48 1002.58 1002.88 1003.36
1015.21 1014.77 1014.27 1013.76 1013.29 1012.88 1012.55 1012.29 1012.10 1011.92 1011.74 1011.54 1011.29 1011.00 1010.67 1010.32 1009.97 1009.62 1009.26 1008.90 1008.52 1008.11 1007.67 1007.21 1006.73 1006.27 1005.86 1005.51 1005.23 1005.03 1004.88 1004.74 1004.59 1004.39 1004.13 1003.81 1003.45 1003.11 1002.83 1002.68 1002.69 1002.90 1003.30 1003.87
1015.18 1014.85 1014.46 1014.04 1013.64 1013.29 1013.02 1012.83 1012.70 1012.60 1012.51 1012.38 1012.20 1011.96 1011.64 1011.26 1010.82 1010.33 1009.80 1009.25 1008.66 1008.07 1007.46 1006.87 1006.32 1005.82 1005.39 1005.05 1004.80 1004.63 1004.50 1004.39 1004.26 1004.10 1003.89 1003.65 1003.40 1003.18 1003.05 1003.05 1003.21 1003.56 1004.07 1004.73
1014.91 1014.72 1014.46 1014.18 1013.91 1013.68 1013.53 1013.44 1013.40 1013.39 1013.36 1013.29 1013.13 1012.88 1012.52 1012.04 1011.47 1010.81 1010.09 1009.32 1008.54 1007.76 1007.01 1006.31 1005.69 1005.16 1004.73 1004.41 1004.19 1004.05 1003.97 1003.90 1003.83 1003.74 1003.63 1003.51 1003.41 1003.37 1003.43 1003.62 1003.96 1004.46 1005.09 1005.83
1014.60 1014.54 1014.42 1014.30 1014.18 1014.11 1014.09 1014.11 1014.17 1014.23 1014.24 1014.18 1014.01 1013.71 1013.25 1012.65 1011.92 1011.08 1010.17 1009.21 1008.25 1007.32 1006.44 1005.66 1004.98 1004.43 1004.01 1003.70 1003.51 1003.40 1003.36 1003.34 1003.34 1003.35 1003.36 1003.39 1003.47 1003.63 1003.90 1004.30 1004.83 1005.48 1006.23 1007.03
1014.42 1014.46 1014.48 1014.50 1014.54 1014.61 1014.72 1014.85 1014.98 1015.08 1015.10 1015.02 1014.79 1014.39 1013.83 1013.09 1012.20 1011.20 1010.13 1009.02 1007.93 1006.88 1005.92 1005.07 1004.36 1003.79 1003.35 1003.05 1002.87 1002.77 1002.75 1002.78 1002.85 1002.95 1003.10 1003.29 1003.56 1003.93 1004.41 1005.01 1005.72 1006.51 1007.36 1008.21
1014.46 1014.58 1014.71 1014.85 1015.02 1015.20 1015.40 1015.61 1015.78 1015.88 1015.88 1015.74 1015.43 1014.93 1014.25 1013.39 1012.38 1011.27 1010.08 1008.88 1007.70 1006.58 1005.57 1004.68 1003.94 1003.34 1002.88 1002.56 1002.36 1002.26 1002.25 1002.31 1002.43 1002.63 1002.90 1003.25 1003.70 1004.26 1004.93 1005.71 1006.56 1007.47 1008.39 1009.27
1014.73 1014.90 1015.10 1015.33 1015.58 1015.84 1016.10 1016.33 1016.50 1016.58 1016.53 1016.32 1015.92 1015.33 1014.56 1013.61 1012.53 1011.34 1010.11 1008.86 1007.65 1006.52 1005.48 1004.57 1003.79 1003.16 1002.66 1002.30 1002.05 1001.93 1001.91 1001.99 1002.16 1002.44 1002.82 1003.31 1003.92 1004.64 1005.47 1006.39 1007.35 1008.34 1009.29 1010.18
1015.15 1015.35 1015.59 1015.86 1016.15 1016.45 1016.73 1016.96 1017.10 1017.13 1017.02 1016.73 1016.26 1015.61 1014.77 1013.78 1012.68 1011.49 1010.26 1009.03 1007.83 1006.71 1005.67 1004.75 1003.94 1003.26 1002.71 1002.29 1001.99 1001.82 1001.78 1001.87 1002.09 1002.43 1002.92 1003.53 1004.27 1005.12 1006.07 1007.08 1008.11 1009.13 1010.09 1010.96
1015.58 1015.79 1016.04 1016.33 1016.64 1016.95 1017.22 1017.42 1017.53 1017.50 1017.33 1016.98 1016.46 1015.77 1014.92 1013.94 1012.86 1011.72 1010.55 1009.37 1008.23 1007.14 1006.13 1005.20 1004.36 1003.63 1003.02 1002.53 1002.17 1001.96 1001.90 1001.99 1002.25 1002.66 1003.23 1003.95 1004.79 1005.74 1006.76 1007.82 1008.88 1009.89 1010.83 1011.65
1015.88 1016.10 1016.36 1016.66 1016.96 1017.26 1017.51 1017.68 1017.74 1017.68 1017.45 1017.07 1016.53 1015.84 1015.02 1014.10 1013.09 1012.04 1010.96 1009.88 1008.81 1007.78 1006.79 1005.86 1004.99 1004.21 1003.54 1002.98 1002.57 1002.31 1002.24 1002.35 1002.64 1003.12 1003.77 1004.57 1005.49 1006.50 1007.56 1008.63 1009.67 1010.64 1011.53 1012.29
1015.97 1016.19 1016.46 1016.76 1017.06 1017.35 1017.58 1017.72 1017.76 1017.66 1017.42 1017.03 1016.50 1015.85 1015.10 1014.26 1013.37 1012.43 1011.47 1010.50 1009.53 1008.56 1007.60 1006.67 1005.78 1004.95 1004.22 1003.61 1003.14 1002.86 1002.78 1002.91 1003.25 1003.79 1004.50 1005.37 1006.34 1007.38 1008.45 1009.50 1010.49 1011.41 1012.22 1012.91
1015.82 1016.05 1016.33 1016.63 1016.94 1017.22 1017.44 1017.58 1017.60 1017.50 1017.26 1016.90 1016.41 1015.83 1015.18 1014.45 1013.69 1012.89 1012.06 1011.21 1010.33 1009.43 1008.51 1007.58 1006.67 1005.81 1005.03 1004.37 1003.87 1003.57 1003.49 1003.64 1004.02 1004.61 1005.38 1006.28 1007.29 1008.34 1009.39 1010.39 1011.33 1012.16 1012.89 1013.51
1015.47 1015.72 1016.02 1016.34 1016.65 1016.94 1017.17 1017.30 1017.33 1017.24 1017.03 1016.72 1016.30 1015.81 1015.27 1014.68 1014.05 1013.40 1012.70 1011.97 1011.19 1010.36 1009.48 1008.57 1007.65 1006.76 1005.95 1005.26 1004.73 1004.41 1004.33 1004.50 1004.90 1005.52 1006.32 1007.25 1008.26 1009.29 1010.31 1011.26 1012.13 1012.89 1013.54 1014.09
Thickness
5801 5790 5786 5799 5808 5808 5807 5807 5806 5818 5832 5823 5814 5813 5815 5822 5820 5817 5814 5812 5808 5806 5808 5807 5805 5802 5797 5792 5788 5784 5781 5778 5776 5773 5769 5766 5765 5766 5765 5763 5762 5761 5760 5758
5790 5787 5805 5815 5816 5813 5808 5801 5805 5817 5829 5822 5814 5812 5819 5821 5819 5819 5815 5811 5808 5804 5802 5800 5800 5797 5793 5788 5785 5783 5779 5776 5774 5771 5769 5767 5765 5765 5763 5762 5760 5759 5758 5756
5786 5804 5818 5813 5806 5802 5804 5800 5802 5806 5818 5821 5810 5799 5811 5817 5819 5820 5819 5815 5811 5805 5797 5797 5796 5794 5790 5785 5783 5782 5778 5774 5772 5770 5768 5766 5763 5761 5759 5757 5756 5757 5756 5755
5797 5812 5813 5806 5804 5804 5795 5811 5808 5804 5799 5794 5801 5776 5799 5810 5808 5811 5812 5811 5808 5805 5800 5799 5796 5793 5789 5787 5784 5781 5776 5773 5770 5768 5765 5761 5756 5753 5753 5754 5754 5755 5754 5753
5793 5807 5805 5799 5805 5809 5806 5818 5808 5801 5796 5791 5796 5782 5789 5803 5792 5798 5806 5807 5806 5806 5801 5799 5796 5793 5790 5788 5783 5779 5774 5770 5767 5765 5763 5759 5756 5753 5753 5753 5751 5751 5751 5751
5797 5813 5812 5810 5818 5818 5815 5807 5801 5796 5789 5767 5786 5781 5779 5795 5795 5794 5802 5805 5805 5805 5802 5800 5798 5794 5789 5786 5781 5776 5771 5766 5764 5761 5760 5756 5753 5751 5749 5748 5747 5747 5747 5747
5782 5797 5812 5817 5804 5809 5805 5783 5762 5756 5756 5764 5796 5786 5784 5801 5807 5801 5799 5801 5805 5805 5801 5797 5794 5790 5787 5782 5779 5775 5768 5762 5760 5758 5756 5754 5752 5749 5746 5745 5744 5743 5743 5742
5763 5770 5800 5811 5802 5795 5797 5786 5757 5744 5751 5767 5787 5783 5794 5809 5813 5813 5808 5805 5804 5801 5799 5795 5792 5789 5785 5781 5776 5772 5765 5760 5758 5755 5752 5751 5749 5747 5745 5743 5742 5741 5740 5740
5766 5772 5805 5813 5815 5806 5790 5785 5793 5775 5767 5758 5771 5781 5794 5808 5806 5807 5805 5802 5799 5797 5796 5793 5790 5787 5783 5778 5773 5768 5762 5757 5755 5752 5750 5748 5746 5744 5742 5740 5739 5738 5737 5737
5775 5767 5793 5808 5810 5807 5804 5797 5783 5769 5750 5742 5757 5771 5776 5788 5793 5798 5798 5795 5794 5792 5792 5790 5786 5783 5781 5776 5771 5766 5760 5755 5752 5749 5747 5745 5742 5740 5739 5737 5734 5734 5733 5731
5773 5758 5774 5789 5784 5784 5788 5787 5783 5779 5773 5750 5744 5763 5797 5794 5797 5796 5794 5794 5793 5789 5787 5785 5782 5780 5775 5772 5767 5762 5757 5752 5749 5746 5743 5741 5738 5736 5734 5732 5730 5728 5727 5726
5763 5755 5752 5771 5796 5803 5793 5787 5783 5762 5759 5765 5757 5764 5804 5801 5798 5795 5793 5792 5790 5787 5784 5780 5777 5774 5770 5765 5762 5757 5754 5749 5746 5743 5739 5736 5734 5731 5729 5727 5725 5723 5721 5720
5754 5742 5729 5741 5766 5783 5782 5786 5786 5780 5767 5759 5753 5762 5797 5796 5790 5792 5790 5787 5783 5780 5778 5776 5773 5768 5764 5760 5756 5752 5749 5746 5743 5740 5735 5731 5728 5726 5723 5722 5720 5718 5716 5714
5752 5738 5728 5724 5742 5760 5765 5773 5780 5772 5757 5756 5761 5764 5778 5780 5779 5783 5783 5780 5777 5773 5772 5771 5766 5763 5759 5756 5753 5749 5745 5742 5739 5735 5731 5726 5723 5721 5719 5717 5715 5713 5710 5708
5745 5732 5735 5742 5755 5762 5764 5769 5773 5768 5766 5758 5762 5762 5768 5774 5776 5777 5777 5774 5770 5765 5766 5764 5761 5757 5754 5751 5748 5745 5742 5738 5734 5729 5725 5722 5720 5718 5715 5712 5710 5707 5705 5703
5735 5725 5728 5734 5750 5757 5759 5767 5770 5768 5768 5764 5764 5762 5775 5775 5775 5772 5769 5767 5763 5762 5761 5760 5757 5753 5749 5746 5743 5740 5737 5734 5729 5724 5721 5719 5716 5713 5710 5707 5704 5701 5699 5697
5725 5719 5714 5719 5739 5743 5738 5757 5763 5764 5769 5764 5753 5758 5766 5762 5761 5762 5762 5760 5757 5755 5757 5754 5751 5748 5745 5742 5739 5735 5732 5729 5725 5720 5717 5715 5713 5708 5705 5703 5699 5696 5693 5690
5715 5711 5711 5713 5718 5706 5739 5767 5768 5761 5764 5767 5762 5762 5762 5760 5759 5759 5759 5755 5753 5752 5751 5749 5746 5743 5741 5739 5735 5731 5728 5724 5719 5715 5713 5711 5708 5704 5701 5697 5694 5690 5687 5684
5719 5707 5701 5701 5700 5712 5736 5752 5754 5747 5745 5759 5756 5754 5756 5760 5754 5750 5755 5753 5750 5749 5747 5744 5743 5739 5736 5733 5730 5725 5721 5718 5714 5711 5708 5707 5704 5700 5696 5692 5688 5685 5682 5679
5716 5708 5697 5696 5690 5692 5716 5742 5755 5746 5727 5748 5748 5744 5745 5743 5729 5733 5746 5747 5745 5742 5741 5738 5737 5734 5728 5726 5724 5719 5714 5712 5709 5707 5705 5702 5699 5695 5691 5688 5684 5681 5677 5674
5694 5693 5689 5689 5689 5702 5721 5736 5738 5711 5710 5733 5737 5735 5736 5731 5729 5734 5738 5737 5736 5735 5733 5731 5728 5724 5721 5720 5717 5712 5709 5707 5707 5704 5701 5697 5694 5691 5687 5684 5680 5676 5672 5669
5685 5684 5685 5686 5682 5685 5715 5720 5707 5703 5718 5724 5726 5726 5724 5724 5726 5727 5727 5726 5726 5724 5723 5721 5718 5715 5713 5712 5709 5705 5703 5703 5702 5699 5694 5691 5688 5686 5683 5678 5673 5670 5666 5662
5684 5682 5681 5678 5677 5691 5701 5702 5704 5708 5708 5712 5715 5716 5717 5716 5716 5715 5715 5715 5714 5714 5713 5712 5708 5705 5704 5703 5701 5698 5697 5696 5694 5690 5687 5684 5682 5679 5676 5672 5667 5663 5660 5657
5680 5687 5680 5675 5677 5685 5691 5694 5698 5699 5699 5704 5706 5707 5709 5706 5706 5705 5704 5703 5702 5702 5702 5701 5698 5695 5693 5694 5693 5692 5690 5688 5685 5681 5678 5676 5673 5670 5668 5664 5661 5658 5654 5652
5665 5672 5670 5667 5673 5677 5683 5683 5685 5689 5693 5695 5698 5699 5698 5695 5694 5694 5692 5691 5691 5690 5690 5690 5687 5685 5685 5685 5684 5684 5682 5680 5676 5672 5669 5667 5665 5663 5659 5656 5653 5651 5648 5646
5661 5661 5659 5657 5663 5664 5668 5676 5679 5679 5681 5684 5686 5687 5688 5687 5685 5683 5682 5681 5680 5680 5680 5679 5677 5677 5677 5676 5675 5675 5674 5671 5667 5664 5661 5659 5657 5654 5652 5648 5644 5640 5639 5637